When you browse on this site, cookies collect data to enhance your experience and personalize the content and advertising you see.
Visit our Privacy Policy to learn more. By continuing to use the site, you agree to this use of cookies and data.
  • In Netherlands
  • List of Countries
  • For 7 days
  • Water Temperature
  • Satellite Maps
  • Weather Map
  • Weather Widgets
  • user-avatar
    Login

    Hourly Weather Ouahigouya

    Today, 21 May, Tuesday

    Time Temperature Precipitation Wind Pressure Humidity
    00:00 +36°C° 0 mm 1 mps 728 mmHg 25%
    01:00 +37°C° 0 mm 2 mps 728 mmHg 27%
    02:00 +36°C° 0 mm 3 mps 727 mmHg 29%
    03:00 +35°C° 0 mm 4 mps 727 mmHg 31%
    04:00 +35°C° 0 mm 3 mps 727 mmHg 36%
    05:00 +34°C° 0 mm 3 mps 728 mmHg 42%
    06:00 +34°C° 0 mm 2 mps 728 mmHg 45%
    07:00 +35°C° 0 mm 3 mps 728 mmHg 43%
    08:00 +36°C° 0 mm 4 mps 729 mmHg 41%
    09:00 +37°C° 0 mm 4 mps 729 mmHg 40%
    10:00 +38°C° 0 mm 3 mps 729 mmHg 35%
    11:00 +40°C° 0 mm 2 mps 729 mmHg 31%
    12:00 +41°C° 0 mm 1 mps 729 mmHg 28%
    13:00 +41°C° 0 mm 1 mps 728 mmHg 27%
    14:00 +38°C° 0 mm 0 mps 728 mmHg 26%
    15:00 +38°C° 0 mm 0 mps 727 mmHg 25%
    16:00 +38°C° 0 mm 0 mps 727 mmHg 25%
    17:00 +41°C° 0 mm 1 mps 727 mmHg 25%
    18:00 +41°C° 0 mm 2 mps 727 mmHg 25%
    19:00 +41°C° 0 mm 2 mps 727 mmHg 26%
    20:00 +40°C° 0 mm 3 mps 727 mmHg 27%
    21:00 +40°C° 0 mm 3 mps 728 mmHg 28%
    22:00 +39°C° 0 mm 3 mps 728 mmHg 30%
    23:00 +39°C° 0 mm 2 mps 728 mmHg 31%

    Tomorrow, 22 May, Wednesday

    Time Temperature Precipitation Wind Pressure Humidity
    00:00 +38°C° 0 mm 2 mps 728 mmHg 32%
    01:00 +37°C° 2.1 mm 3 mps 728 mmHg 38%
    02:00 +35°C° 2.1 mm 4 mps 727 mmHg 44%
    03:00 +34°C° 2.1 mm 5 mps 727 mmHg 50%
    04:00 +34°C° 0.2 mm 5 mps 727 mmHg 49%
    05:00 +34°C° 0.2 mm 6 mps 728 mmHg 49%
    06:00 +34°C° 0.2 mm 6 mps 728 mmHg 48%
    07:00 +35°C° 0 mm 5 mps 728 mmHg 45%
    08:00 +36°C° 0 mm 5 mps 729 mmHg 43%
    09:00 +37°C° 0 mm 4 mps 729 mmHg 40%
    10:00 +38°C° 0 mm 3 mps 729 mmHg 37%
    11:00 +39°C° 0 mm 3 mps 729 mmHg 34%
    12:00 +40°C° 0 mm 2 mps 729 mmHg 31%
    13:00 +40°C° 0 mm 2 mps 728 mmHg 30%
    14:00 +40°C° 0 mm 1 mps 727 mmHg 29%
    15:00 +41°C° 0 mm 1 mps 727 mmHg 28%
    16:00 +40°C° 0.1 mm 1 mps 727 mmHg 28%
    17:00 +40°C° 0.1 mm 1 mps 727 mmHg 29%
    18:00 +40°C° 0.1 mm 1 mps 727 mmHg 30%
    19:00 +40°C° 0 mm 1 mps 727 mmHg 31%
    20:00 +39°C° 0 mm 2 mps 727 mmHg 32%
    21:00 +39°C° 0 mm 2 mps 728 mmHg 33%
    22:00 +36°C° 4.4 mm 3 mps 728 mmHg 44%
    23:00 +34°C° 4.4 mm 5 mps 727 mmHg 56%

    Day after tomorrow, 23 May, Thursday

    Time Temperature Precipitation Wind Pressure Humidity
    00:00 +30°C° 4.4 mm 6 mps 727 mmHg 67%
    01:00 +30°C° 5.7 mm 5 mps 727 mmHg 66%
    02:00 +32°C° 5.7 mm 5 mps 727 mmHg 65%
    03:00 +32°C° 5.7 mm 4 mps 727 mmHg 64%
    04:00 +31°C° 0.1 mm 3 mps 727 mmHg 61%
    05:00 +31°C° 0.1 mm 3 mps 727 mmHg 58%
    06:00 +31°C° 0.1 mm 3 mps 727 mmHg 54%
    07:00 +34°C° 0 mm 3 mps 728 mmHg 49%
    08:00 +35°C° 0 mm 2 mps 728 mmHg 44%
    09:00 +37°C° 0 mm 2 mps 729 mmHg 39%
    10:00 +38°C° 0 mm 2 mps 729 mmHg 36%
    11:00 +39°C° 0 mm 3 mps 729 mmHg 32%
    12:00 +42°C° 0 mm 3 mps 729 mmHg 29%
    13:00 +42°C° 0 mm 3 mps 728 mmHg 29%
    14:00 +42°C° 0 mm 3 mps 727 mmHg 28%
    15:00 +41°C° 0 mm 2 mps 726 mmHg 28%
    16:00 +41°C° 0 mm 2 mps 726 mmHg 27%
    17:00 +41°C° 0 mm 2 mps 726 mmHg 27%
    18:00 +41°C° 0 mm 1 mps 726 mmHg 27%
    19:00 +40°C° 0 mm 2 mps 727 mmHg 29%
    20:00 +40°C° 0 mm 2 mps 727 mmHg 31%
    21:00 +40°C° 0 mm 2 mps 728 mmHg 33%
    22:00 +39°C° 0 mm 3 mps 728 mmHg 36%
    23:00 +38°C° 0 mm 4 mps 728 mmHg 38%

    24 May, Friday

    Time Temperature Precipitation Wind Pressure Humidity
    00:00 +37°C° 0 mm 4 mps 728 mmHg 41%
    01:00 +37°C° 0 mm 4 mps 728 mmHg 44%
    02:00 +36°C° 0 mm 4 mps 727 mmHg 46%
    03:00 +35°C° 0 mm 3 mps 727 mmHg 48%
    04:00 +35°C° 0 mm 3 mps 727 mmHg 49%
    05:00 +35°C° 0 mm 3 mps 728 mmHg 50%
    06:00 +35°C° 0 mm 4 mps 728 mmHg 51%
    07:00 +35°C° 0 mm 5 mps 728 mmHg 50%
    08:00 +36°C° 0 mm 6 mps 729 mmHg 49%
    09:00 +36°C° 0 mm 7 mps 729 mmHg 48%
    10:00 +38°C° 0 mm 6 mps 729 mmHg 44%
    11:00 +40°C° 0 mm 6 mps 729 mmHg 41%
    12:00 +41°C° 0 mm 5 mps 728 mmHg 37%
    13:00 +41°C° 0 mm 5 mps 728 mmHg 34%
    14:00 +42°C° 0 mm 4 mps 727 mmHg 32%
    15:00 +43°C° 0 mm 3 mps 726 mmHg 29%
    16:00 +42°C° 0 mm 3 mps 726 mmHg 30%
    17:00 +42°C° 0 mm 3 mps 726 mmHg 30%
    18:00 +42°C° 0 mm 3 mps 726 mmHg 31%
    19:00 +40°C° 0.2 mm 3 mps 727 mmHg 33%
    20:00 +39°C° 0.2 mm 3 mps 727 mmHg 35%
    21:00 +39°C° 0.2 mm 3 mps 728 mmHg 37%
    22:00 +36°C° 8.7 mm 5 mps 728 mmHg 46%
    23:00 +34°C° 8.7 mm 6 mps 728 mmHg 56%

    25 May, Saturday

    Time Temperature Precipitation Wind Pressure Humidity
    00:00 +31°C° 8.7 mm 8 mps 728 mmHg 66%
    01:00 +30°C° 1.7 mm 6 mps 728 mmHg 63%
    02:00 +30°C° 1.7 mm 5 mps 728 mmHg 60%
    03:00 +30°C° 1.7 mm 4 mps 728 mmHg 58%
    04:00 +30°C° 0 mm 3 mps 728 mmHg 57%
    05:00 +31°C° 0 mm 2 mps 728 mmHg 56%
    06:00 +31°C° 0 mm 1 mps 728 mmHg 55%
    07:00 +32°C° 0 mm 2 mps 729 mmHg 53%
    08:00 +34°C° 0 mm 2 mps 729 mmHg 50%
    09:00 +34°C° 0 mm 3 mps 730 mmHg 47%
    10:00 +35°C° 0 mm 3 mps 730 mmHg 45%
    11:00 +36°C° 0 mm 4 mps 729 mmHg 42%
    12:00 +37°C° 0 mm 4 mps 729 mmHg 40%
    13:00 +38°C° 0 mm 4 mps 728 mmHg 39%
    14:00 +38°C° 0 mm 4 mps 728 mmHg 37%
    15:00 +38°C° 0 mm 4 mps 727 mmHg 36%
    16:00 +38°C° 0 mm 4 mps 727 mmHg 36%
    17:00 +38°C° 0 mm 3 mps 727 mmHg 37%
    18:00 +38°C° 0 mm 2 mps 727 mmHg 37%
    19:00 +37°C° 0 mm 2 mps 727 mmHg 39%
    20:00 +37°C° 0 mm 2 mps 728 mmHg 41%
    21:00 +36°C° 0 mm 3 mps 728 mmHg 43%
    22:00 +36°C° 0 mm 3 mps 728 mmHg 44%
    23:00 +35°C° 0 mm 3 mps 728 mmHg 45%

    26 May, Sunday

    Time Temperature Precipitation Wind Pressure Humidity
    00:00 +35°C° 0 mm 4 mps 727 mmHg 47%
    01:00 +35°C° 0 mm 4 mps 727 mmHg 47%
    02:00 +34°C° 0 mm 4 mps 727 mmHg 48%
    03:00 +34°C° 0 mm 5 mps 726 mmHg 49%
    04:00 +33°C° 0 mm 5 mps 727 mmHg 50%
    05:00 +33°C° 0 mm 5 mps 727 mmHg 51%
    06:00 +33°C° 0 mm 5 mps 728 mmHg 52%
    07:00 +34°C° 0 mm 5 mps 728 mmHg 47%
    08:00 +35°C° 0 mm 5 mps 729 mmHg 43%
    09:00 +36°C° 0 mm 5 mps 729 mmHg 38%
    10:00 +37°C° 0 mm 5 mps 729 mmHg 35%
    11:00 +40°C° 0 mm 5 mps 729 mmHg 32%
    12:00 +41°C° 0 mm 5 mps 728 mmHg 30%
    13:00 +41°C° 0 mm 5 mps 728 mmHg 28%
    14:00 +42°C° 0 mm 4 mps 727 mmHg 26%
    15:00 +43°C° 0 mm 4 mps 726 mmHg 24%
    16:00 +42°C° 0 mm 3 mps 726 mmHg 24%
    17:00 +42°C° 0 mm 3 mps 726 mmHg 24%
    18:00 +42°C° 0 mm 3 mps 726 mmHg 24%
    19:00 +40°C° 0 mm 2 mps 727 mmHg 26%
    20:00 +40°C° 0 mm 2 mps 727 mmHg 27%
    21:00 +39°C° 0 mm 1 mps 728 mmHg 29%
    22:00 +39°C° 0 mm 3 mps 727 mmHg 31%
    23:00 +38°C° 0 mm 4 mps 727 mmHg 34%
    Show more